When you browse on this site, cookies collect data to enhance your experience and personalize the content and advertising you see.
Visit our Privacy Policy to learn more. By continuing to use the site, you agree to this use of cookies and data.
  • In Hungary
  • List of Countries
  • For 7 days
  • Water Temperature
  • Satellite Maps
  • Weather Map
  • News
  • Weather Widgets
  • user-avatar
    Login

    Hourly Weather Union

    Today, 25 June, Tuesday

    Time Temperature Precipitation Wind Pressure Humidity
    00:00 +25°C° 0.2 mm 2 mps 755 mmHg 75%
    01:00 +25°C° 0 mm 1 mps 755 mmHg 80%
    02:00 +25°C° 1.3 mm 1 mps 755 mmHg 82%
    03:00 +24°C° 1.3 mm 2 mps 754 mmHg 85%
    04:00 +24°C° 1.3 mm 2 mps 754 mmHg 87%
    05:00 +24°C° 1.1 mm 2 mps 754 mmHg 88%
    06:00 +24°C° 1.1 mm 2 mps 754 mmHg 88%
    07:00 +25°C° 0 mm 1 mps 755 mmHg 87%
    08:00 +25°C° 1 mm 1 mps 755 mmHg 85%
    09:00 +26°C° 1 mm 1 mps 755 mmHg 83%
    10:00 +27°C° 1 mm 1 mps 755 mmHg 81%
    11:00 +28°C° 0.2 mm 1 mps 755 mmHg 74%
    12:00 +30°C° 0.2 mm 1 mps 755 mmHg 66%
    13:00 +31°C° 0.2 mm 2 mps 755 mmHg 59%
    14:00 +31°C° 0.1 mm 2 mps 755 mmHg 57%
    15:00 +32°C° 0.1 mm 2 mps 755 mmHg 56%
    16:00 +32°C° 0.1 mm 2 mps 755 mmHg 55%
    17:00 +31°C° 0.1 mm 2 mps 755 mmHg 55%
    18:00 +30°C° 0.1 mm 2 mps 755 mmHg 56%
    19:00 +30°C° 0.1 mm 2 mps 756 mmHg 56%
    20:00 +29°C° 0 mm 3 mps 756 mmHg 56%
    21:00 +28°C° 0 mm 3 mps 757 mmHg 57%
    22:00 +27°C° 0 mm 3 mps 757 mmHg 57%
    23:00 +26°C° 0 mm 3 mps 757 mmHg 58%

    Tomorrow, 26 June, Wednesday

    Time Temperature Precipitation Wind Pressure Humidity
    00:00 +26°C° 0 mm 4 mps 758 mmHg 59%
    01:00 +25°C° 0 mm 4 mps 758 mmHg 60%
    02:00 +25°C° 0 mm 4 mps 758 mmHg 62%
    03:00 +24°C° 0 mm 3 mps 759 mmHg 64%
    04:00 +22°C° 0 mm 3 mps 759 mmHg 67%
    05:00 +24°C° 0 mm 3 mps 759 mmHg 64%
    06:00 +25°C° 0 mm 2 mps 760 mmHg 62%
    07:00 +25°C° 0 mm 2 mps 760 mmHg 60%
    08:00 +27°C° 0 mm 2 mps 760 mmHg 53%
    09:00 +29°C° 0 mm 2 mps 760 mmHg 46%
    10:00 +30°C° 0 mm 2 mps 760 mmHg 39%
    11:00 +31°C° 0 mm 2 mps 760 mmHg 36%
    12:00 +34°C° 0 mm 2 mps 760 mmHg 33%
    13:00 +35°C° 0 mm 2 mps 760 mmHg 30%
    14:00 +35°C° 0 mm 2 mps 760 mmHg 32%
    15:00 +35°C° 0 mm 3 mps 759 mmHg 34%
    16:00 +34°C° 0 mm 3 mps 759 mmHg 37%
    17:00 +33°C° 0 mm 4 mps 759 mmHg 42%
    18:00 +32°C° 0 mm 4 mps 760 mmHg 48%
    19:00 +30°C° 0 mm 4 mps 760 mmHg 53%
    20:00 +30°C° 0 mm 3 mps 760 mmHg 56%
    21:00 +29°C° 0 mm 3 mps 760 mmHg 58%
    22:00 +28°C° 0 mm 3 mps 761 mmHg 61%
    23:00 +28°C° 0 mm 3 mps 761 mmHg 62%

    Day after tomorrow, 27 June, Thursday

    Time Temperature Precipitation Wind Pressure Humidity
    00:00 +27°C° 0 mm 2 mps 761 mmHg 63%
    01:00 +26°C° 0 mm 2 mps 761 mmHg 64%
    02:00 +26°C° 0 mm 2 mps 761 mmHg 64%
    03:00 +25°C° 0 mm 2 mps 761 mmHg 64%
    04:00 +25°C° 0 mm 2 mps 761 mmHg 64%
    05:00 +26°C° 0 mm 2 mps 762 mmHg 62%
    06:00 +26°C° 0 mm 2 mps 762 mmHg 61%
    07:00 +27°C° 0 mm 2 mps 762 mmHg 59%
    08:00 +28°C° 0 mm 2 mps 762 mmHg 52%
    09:00 +30°C° 0 mm 2 mps 762 mmHg 46%
    10:00 +31°C° 0 mm 2 mps 762 mmHg 39%
    11:00 +32°C° 0 mm 2 mps 762 mmHg 36%
    12:00 +34°C° 0 mm 2 mps 762 mmHg 33%
    13:00 +35°C° 0 mm 2 mps 762 mmHg 30%
    14:00 +35°C° 0 mm 2 mps 762 mmHg 30%
    15:00 +35°C° 0 mm 2 mps 762 mmHg 30%
    16:00 +35°C° 0 mm 2 mps 761 mmHg 31%
    17:00 +34°C° 0 mm 2 mps 762 mmHg 34%
    18:00 +32°C° 0 mm 2 mps 762 mmHg 38%
    19:00 +31°C° 0 mm 2 mps 762 mmHg 41%
    20:00 +30°C° 0 mm 1 mps 762 mmHg 44%
    21:00 +29°C° 0 mm 1 mps 762 mmHg 46%
    22:00 +28°C° 0 mm 1 mps 762 mmHg 49%
    23:00 +27°C° 0 mm 2 mps 762 mmHg 51%

    28 June, Friday

    Time Temperature Precipitation Wind Pressure Humidity
    00:00 +27°C° 0 mm 2 mps 763 mmHg 53%
    01:00 +26°C° 0 mm 2 mps 763 mmHg 55%
    02:00 +26°C° 0 mm 2 mps 763 mmHg 57%
    03:00 +25°C° 0 mm 2 mps 763 mmHg 59%
    04:00 +25°C° 0 mm 1 mps 763 mmHg 62%
    05:00 +26°C° 0 mm 1 mps 763 mmHg 59%
    06:00 +26°C° 0 mm 1 mps 763 mmHg 56%
    07:00 +27°C° 0 mm 1 mps 764 mmHg 53%
    08:00 +29°C° 0 mm 1 mps 763 mmHg 46%
    09:00 +31°C° 0 mm 1 mps 763 mmHg 39%
    10:00 +33°C° 0 mm 1 mps 763 mmHg 31%
    11:00 +34°C° 0 mm 1 mps 763 mmHg 30%
    12:00 +36°C° 0 mm 2 mps 763 mmHg 29%
    13:00 +36°C° 0 mm 2 mps 763 mmHg 28%
    14:00 +36°C° 0 mm 2 mps 762 mmHg 30%
    15:00 +36°C° 0 mm 3 mps 762 mmHg 31%
    16:00 +36°C° 0 mm 3 mps 761 mmHg 33%
    17:00 +35°C° 0.1 mm 3 mps 762 mmHg 39%
    18:00 +34°C° 0.1 mm 2 mps 762 mmHg 45%
    19:00 +32°C° 0.1 mm 2 mps 762 mmHg 51%
    20:00 +31°C° 1.5 mm 2 mps 762 mmHg 56%
    21:00 +30°C° 1.5 mm 2 mps 761 mmHg 61%
    22:00 +28°C° 1.5 mm 2 mps 761 mmHg 65%
    23:00 +28°C° 0.2 mm 2 mps 761 mmHg 66%

    29 June, Saturday

    Time Temperature Precipitation Wind Pressure Humidity
    00:00 +28°C° 0.2 mm 2 mps 761 mmHg 66%
    01:00 +27°C° 0.2 mm 3 mps 761 mmHg 66%
    02:00 +27°C° 0 mm 3 mps 760 mmHg 69%
    03:00 +26°C° 0 mm 3 mps 760 mmHg 72%
    04:00 +26°C° 0 mm 3 mps 760 mmHg 75%
    05:00 +27°C° 0 mm 3 mps 760 mmHg 73%
    06:00 +27°C° 0 mm 3 mps 760 mmHg 71%
    07:00 +28°C° 0 mm 3 mps 760 mmHg 69%
    08:00 +29°C° 0 mm 3 mps 760 mmHg 63%
    09:00 +31°C° 0 mm 3 mps 760 mmHg 56%
    10:00 +34°C° 0 mm 3 mps 760 mmHg 49%
    11:00 +35°C° 0 mm 4 mps 759 mmHg 46%
    12:00 +36°C° 0 mm 4 mps 759 mmHg 43%
    13:00 +37°C° 0 mm 4 mps 759 mmHg 39%
    14:00 +36°C° 0.1 mm 4 mps 758 mmHg 41%
    15:00 +36°C° 0.1 mm 5 mps 758 mmHg 42%
    16:00 +35°C° 0.1 mm 5 mps 757 mmHg 43%
    17:00 +34°C° 0 mm 5 mps 757 mmHg 47%
    18:00 +33°C° 0 mm 4 mps 757 mmHg 51%
    19:00 +33°C° 0 mm 4 mps 757 mmHg 54%
    20:00 +31°C° 0 mm 3 mps 757 mmHg 57%
    21:00 +30°C° 0 mm 3 mps 757 mmHg 60%
    22:00 +29°C° 0 mm 2 mps 757 mmHg 63%
    23:00 +29°C° 0 mm 2 mps 757 mmHg 64%

    30 June, Sunday

    Time Temperature Precipitation Wind Pressure Humidity
    00:00 +28°C° 0 mm 2 mps 757 mmHg 66%
    01:00 +28°C° 0 mm 2 mps 756 mmHg 67%
    02:00 +27°C° 0 mm 2 mps 756 mmHg 68%
    03:00 +27°C° 0 mm 2 mps 756 mmHg 69%
    04:00 +27°C° 0 mm 2 mps 755 mmHg 70%
    05:00 +27°C° 0.1 mm 3 mps 755 mmHg 69%
    06:00 +28°C° 0.1 mm 3 mps 755 mmHg 68%
    07:00 +28°C° 0.1 mm 4 mps 754 mmHg 67%
    08:00 +29°C° 0 mm 4 mps 754 mmHg 64%
    09:00 +30°C° 0 mm 5 mps 753 mmHg 62%
    10:00 +32°C° 0 mm 5 mps 753 mmHg 59%
    11:00 +32°C° 0.5 mm 5 mps 752 mmHg 58%
    12:00 +33°C° 0.5 mm 5 mps 752 mmHg 58%
    13:00 +33°C° 0.5 mm 5 mps 751 mmHg 57%
    14:00 +33°C° 1 mm 6 mps 750 mmHg 57%
    15:00 +33°C° 1 mm 6 mps 750 mmHg 58%
    16:00 +32°C° 1 mm 7 mps 749 mmHg 59%
    17:00 +32°C° 0.1 mm 7 mps 749 mmHg 57%
    18:00 +30°C° 0.1 mm 6 mps 750 mmHg 55%
    19:00 +30°C° 0.1 mm 6 mps 750 mmHg 53%
    20:00 +28°C° 0 mm 6 mps 750 mmHg 53%
    21:00 +26°C° 0 mm 6 mps 751 mmHg 54%
    22:00 +23°C° 0 mm 6 mps 751 mmHg 54%
    23:00 +22°C° 0 mm 6 mps 752 mmHg 54%
    Show more